This demonstration page uses our WeatherBlox Daily Observations layout. Learn more.

Left ArrowRight Arrow

38.89511, -77.03637

Hourly Observations for May 13, 2018

Temp ( °F °C ) Dew Point ( °F °C ) Humidity (%) Winds ( mph kmh ) Pressure ( in mb ) Visibility ( mi km ) Precip ( " mm )
12:14 am 00:14 Mostly Cloudy with Nearby Thunderstorms 70 21.1 62 16.7 76 76 Calm 30.06 1018 10 16 0.00 0.00
12:21 am 00:21 Mostly Cloudy 69 20.6 62 16.7 78 78 E 5 7 30.06 1018 10 16 0.00 0.00
12:52 am 00:52 Partly Cloudy 69 20.6 63 17.2 81 81 ENE 5 7 30.05 1018 10 16 0.00 0.00
1:52 am 01:52 Partly Cloudy 68 20 63 17.2 84 84 NE 8 13 30.04 1017 10 16 0.00 0.00
2:52 am 02:52 Mostly Cloudy 68 20 62 16.7 81 81 NNE 10 17 30.04 1017 10 16 0.00 0.00
3:29 am 03:29 Cloudy 67 19.4 62 16.7 84 84 NNE 12 19 30.03 1017 10 16 0.00 0.00
3:45 am 03:45 Cloudy 67 19.4 62 16.7 84 84 NE 8 13 30.03 1017 10 16 0.00 0.00
3:52 am 03:52 Cloudy 67 19.4 62 16.7 84 84 NE 12 19 30.03 1017 10 16 0.00 0.00
4:52 am 04:52 Cloudy with Light Rain 66 18.9 62 16.7 87 87 N 13 20 30.08 1019 10 16 0.00 0.03
5:11 am 05:11 Cloudy with Heavy Rain 66 18.9 62 16.7 87 87 N 16 26 30.09 1019 4 6 0.03 0.76
5:20 am 05:20 Cloudy with Rain 66 18.9 62 16.7 87 87 NE 10 17 30.09 1019 3 5 0.11 2.79
5:42 am 05:42 Cloudy with Rain 65 18.3 62 16.7 90 90 SE 3 6 30.09 1019 3 4 0.22 5.59
5:52 am 05:52 Cloudy with Rain 65 18.3 62 16.7 90 90 ESE 6 9 30.06 1018 5 8 0.25 6.35
6:19 am 06:19 Cloudy with Light Rain 65 18.3 62 16.7 90 90 SSE 5 7 30.09 1019 9 14 0.03 0.76
6:52 am 06:52 Cloudy with Light Rain 65 18.3 62 16.7 90 90 Calm 30.07 1018 9 14 0.07 1.78
7:03 am 07:03 Cloudy with Light Rain 65 18.3 62 16.7 90 90 E 5 7 30.06 1018 9 14 0.00 0.03
7:44 am 07:44 Mostly Cloudy 67 19.4 63 17.2 87 87 NNE 5 7 30.09 1019 10 16 0.00 0.03
7:52 am 07:52 Cloudy 66 18.9 63 17.2 90 90 ENE 5 7 30.08 1019 10 16 0.00 0.03
8:52 am 08:52 Cloudy with Light Rain 67 19.4 62 16.7 84 84 Calm 30.09 1019 10 16 0.00 0.03
9:52 am 09:52 Cloudy 68 20 63 17.2 84 84 ENE 7 11 30.10 1019 10 16 0.00 0.03
9:59 am 09:59 Cloudy with Light Rain 68 20 63 17.2 84 84 NE 7 11 30.09 1019 10 16 0.00 0.03
10:42 am 10:42 Mostly Cloudy with Light Rain 69 20.6 65 18.3 87 87 ESE 6 9 30.06 1018 10 16 0.04 1.02
10:52 am 10:52 Mostly Cloudy 69 20.6 65 18.3 87 87 VRB 6 9 30.07 1018 10 16 0.04 1.02
10:59 am 10:59 Mostly Cloudy 69 20.6 64 17.8 84 84 SSE 5 7 30.06 1018 10 16 0.00 0.00
11:06 am 11:06 Cloudy 70 21.1 64 17.8 82 82 SE 3 6 30.06 1018 10 16 0.00 0.00
11:52 am 11:52 Cloudy 71 21.7 65 18.3 81 81 SSE 5 7 30.07 1018 10 16 0.00 0.00
12:27 pm 12:27 Cloudy 71 21.7 65 18.3 81 81 S 7 11 30.06 1018 10 16 0.00 0.00
12:52 pm 12:52 Cloudy 71 21.7 65 18.3 81 81 S 7 11 30.07 1018 10 16 0.00 0.00
1:52 pm 13:52 Cloudy 69 20.6 64 17.8 84 84 NE 14 22 30.05 1018 10 16 0.00 0.00
1:57 pm 13:57 Cloudy 69 20.6 64 17.8 84 84 ENE 15 24 30.06 1018 10 16 0.00 0.00
1:59 pm 13:59 Cloudy 68 20 64 17.8 87 87 ENE 16 26 30.06 1018 10 16 0.00 0.00
2:26 pm 14:26 Cloudy 66 18.9 63 17.2 90 90 ENE 13 20 30.06 1018 8 13 0.00 0.00
2:43 pm 14:43 Cloudy 66 18.9 62 16.7 87 87 ENE 15 24 30.06 1018 9 14 0.00 0.00
2:52 pm 14:52 Cloudy 66 18.9 62 16.7 87 87 ENE 13 20 30.05 1018 10 16 0.00 0.00
3:52 pm 15:52 Cloudy 64 17.8 60 15.6 87 87 E 12 19 30.05 1018 9 14 0.00 0.00
4:52 pm 16:52 Cloudy 63 17.2 59 15 87 87 ENE 13 20 30.04 1017 10 16 0.00 0.00
5:22 pm 17:22 Cloudy 63 17.2 59 15 87 87 ESE 9 15 30.03 1017 10 16 0.00 0.00
5:50 pm 17:50 Cloudy 63 17 59 15 88 88 E 9 15 30.03 1017 9 14 0.00 0.00
5:52 pm 17:52 Cloudy 63 17.2 59 15 87 87 ESE 8 13 30.03 1017 9 14 0.00 0.00
6:52 pm 18:52 Cloudy 63 17.2 59 15 87 87 E 9 15 30.02 1017 10 16 0.00 0.00
6:55 pm 18:55 Cloudy 63 17.2 58 14.4 84 84 E 9 15 30.03 1017 10 16 0.00 0.00
7:52 pm 19:52 Cloudy 63 17.2 59 15 87 87 E 8 13 30.03 1017 10 16 0.00 0.03
8:52 pm 20:52 Cloudy 63 17.2 59 15 87 87 ESE 6 9 30.02 1017 10 16 0.00 0.00
9:52 pm 21:52 Cloudy with Thunderstorms 64 17.8 59 15 84 84 ENE 7 11 30.04 1017 10 16 0.00 0.00
10:22 pm 22:22 Cloudy with Thunderstorms 63 17.2 59 15 87 87 SE 3 6 30.03 1017 4 6 0.15 3.81
10:40 pm 22:40 Cloudy with Light Rain 63 17.2 59 15 87 87 SE 7 11 30.03 1017 9 14 0.16 4.06
10:52 pm 22:52 Cloudy with Thunderstorms 63 17.2 59 15 87 87 ESE 7 11 30.03 1017 10 16 0.16 4.06
11:33 pm 23:33 Cloudy 63 17.2 59 15 87 87 N 7 11 30.03 1017 10 16 0.00 0.03
11:52 pm 23:52 Cloudy 63 17.2 60 15.6 90 90 NNE 5 7 30.04 1017 10 16 0.00 0.03

Powered by AerisWeather